Home   Weather   Yokosuka   Past weeks

Flag for Japan Past Weather in Yokosuka, Japan — Yesterday and Last 2 Weeks

Now
59 °F

Passing clouds.


Feels Like: 57 °F
Forecast: 55 / 63 °F
Wind: 10 mph from South

Location: Tokyo International Airport

Current Time: Apr 25, 2017 at 12:37:05 am

Latest Report: Apr 25, 2017 at 12:00 am


Visibility: N/A

Pressure: 30.33 "Hg

Humidity: 63%

Dew Point: 46 °F

Location of YokosukaLocation

Past Weather in Yokosuka — Graph

°F

Yokosuka Temperature Yesterday

Maximum temperature yesterday: 63 °F (at 12:30 pm)
Minimum temperature yesterday: 54 °F (at 5:00 am)
Average temperature yesterday: 58 °F

High & Low Weather Summary for the Past Weeks

 TemperatureHumidityPressure
High79 °F (Apr 19, 2:00 pm)100% (Apr 11, 10:30 am)30.36 "Hg (Apr 11, 10:30 am)
Low46 °F (Apr 11, 8:00 am)17% (Apr 19, 5:00 pm)29.18 "Hg (Apr 18, 12:13 pm)
Average60 °F65%29.81 "Hg
* Reported Apr 9 11:00 pm — Apr 24 11:00 pm, Yokosuka, Weather by CustomWeather, © 2017

Note: Actual official high and low records may vary slightly from our data, if they occured in-between our weather recording intervals... More about our weather records

Advertising

Yokosuka Weather History for the Previous 24 Hours

Scroll right to see more
 ConditionsComfort  
Time TempWeatherWind HumidityBarometerVisibility
11:00 pm
Mon, Apr 24
57 °FPassing clouds.13 mph63%30.33 "HgN/A
10:30 pm57 °FPassing clouds.13 mph63%30.36 "HgN/A
10:00 pm57 °FPassing clouds.13 mph63%30.36 "HgN/A
9:30 pm57 °FPassing clouds.16 mph63%30.36 "HgN/A
9:00 pm59 °FPassing clouds.14 mph59%30.36 "HgN/A
8:30 pm59 °FPassing clouds.15 mph63%30.36 "HgN/A
8:00 pm57 °FPassing clouds.14 mph67%30.33 "HgN/A
7:30 pm59 °FPassing clouds.16 mph63%30.33 "HgN/A
7:00 pm59 °FPassing clouds.15 mph59%30.30 "HgN/A
6:30 pm61 °FPassing clouds.15 mph59%30.30 "HgN/A
6:00 pm61 °FScattered clouds.13 mph55%30.30 "HgN/A
5:30 pm61 °FPassing clouds.12 mph59%30.30 "HgN/A
5:00 pm61 °FPassing clouds.10 mph59%30.27 "HgN/A
4:30 pm61 °FPassing clouds.15 mph63%30.27 "HgN/A
4:00 pm63 °FPassing clouds.12 mph56%30.27 "HgN/A
3:30 pm63 °FPassing clouds.12 mph56%30.27 "HgN/A
3:00 pm63 °FPassing clouds.10 mph56%30.27 "HgN/A
2:30 pm63 °FScattered clouds.10 mph56%30.27 "HgN/A
2:00 pm63 °FScattered clouds.9 mph56%30.30 "HgN/A
1:30 pm63 °FPassing clouds.9 mph56%30.30 "HgN/A
12:30 pm63 °FPassing clouds.6 mph52%30.30 "HgN/A
12:00 pm61 °FPassing clouds.5 mph55%30.30 "HgN/A
11:30 am61 °FPartly sunny.5 mph52%30.33 "HgN/A
11:00 am61 °FPartly sunny.7 mph52%30.33 "HgN/A
10:30 am59 °FPartly sunny.7 mph59%30.33 "HgN/A
10:00 am59 °FPartly sunny.7 mph59%30.33 "HgN/A
9:30 am59 °FPartly sunny.8 mph59%30.33 "HgN/A
9:00 am57 °FPartly sunny.8 mph63%30.33 "HgN/A
8:30 am57 °FPartly sunny.8 mph67%30.33 "HgN/A
8:00 am55 °FPartly sunny.7 mph67%30.33 "HgN/A
7:30 am55 °FPartly sunny.6 mph67%30.33 "HgN/A
7:00 am55 °FPartly sunny.7 mph67%30.33 "HgN/A
6:30 am54 °FPartly sunny.9 mph72%30.30 "HgN/A
6:00 am55 °FBroken clouds.10 mph67%30.30 "HgN/A
5:30 am55 °FPartly sunny.7 mph63%30.27 "HgN/A
5:00 am54 °FPartly sunny.8 mph63%30.27 "HgN/A
4:30 am55 °FPartly cloudy.8 mph63%30.24 "HgN/A
4:00 am55 °FPassing clouds.8 mph59%30.24 "HgN/A
3:30 am55 °FPartly cloudy.7 mph59%30.24 "HgN/A
3:00 am55 °FPassing clouds.7 mph59%30.24 "HgN/A
2:30 am55 °FPartly cloudy.7 mph63%30.24 "HgN/A
2:00 am55 °FPassing clouds.7 mph59%30.24 "HgN/A
1:30 am55 °FPassing clouds.8 mph59%30.21 "HgN/A
1:00 am55 °FPassing clouds.8 mph59%30.21 "HgN/A
12:30 am55 °FPassing clouds.8 mph63%30.21 "HgN/A
12:00 am55 °FPassing clouds.10 mph59%30.21 "HgN/A
Weather by CustomWeather, © 2017

See weather overviewHow to use our weather pages